Time,TemperatureF,DewpointF,PressureIn,WindDirection,WindDirectionDegrees,WindSpeedMPH,WindSpeedGustMPH,Humidity,HourlyPrecipIn,Conditions,Clouds,dailyrainin,SolarRadiationWatts/m^2,SoftwareType,DateUTC
2013-01-18 00:05:00,33.5,24.0,30.12,NNW,343,0.0,5.0,67,0.00,,,0.00,0,weatherlink.com 1.10,2013-01-18 05:05:00,
2013-01-18 00:11:00,33.3,23.0,30.12,ENE,61,1.0,5.0,66,0.00,,,0.00,0,weatherlink.com 1.10,2013-01-18 05:11:00,
2013-01-18 00:22:00,33.2,22.3,30.14,North,5,1.0,1.0,64,0.00,,,0.00,0,Wunderground v.1.15,2013-01-18 05:22:00,
2013-01-18 00:37:00,33.1,23.0,30.13,North,11,1.0,1.0,66,0.00,,,0.00,0,Wunderground v.1.15,2013-01-18 05:37:00,
2013-01-18 00:44:00,32.9,22.8,30.11,NNE,18,5.0,5.0,66,0.00,,,0.00,0,Wunderground v.1.15,2013-01-18 05:44:00,
2013-01-18 00:49:00,32.8,22.7,30.12,North,11,3.0,5.0,66,0.00,,,0.00,0,Wunderground v.1.15,2013-01-18 05:49:00,
2013-01-18 00:54:00,32.7,22.6,30.13,North,355,2.0,3.0,66,0.00,,,0.00,0,Wunderground v.1.15,2013-01-18 05:54:00,
2013-01-18 01:00:00,32.7,22.6,30.14,NNE,14,8.0,8.0,66,0.00,,,0.00,0,Wunderground v.1.15,2013-01-18 06:00:00,
2013-01-18 01:06:00,32.6,22.5,30.14,North,355,2.0,8.0,66,0.00,,,0.00,0,Wunderground v.1.15,2013-01-18 06:06:00,
2013-01-18 01:11:00,32.5,22.8,30.15,North,355,0.0,3.0,67,0.00,,,0.00,0,Wunderground v.1.15,2013-01-18 06:11:00,
2013-01-18 01:17:00,32.5,22.8,30.15,North,5,8.0,8.0,67,0.00,,,0.00,0,Wunderground v.1.15,2013-01-18 06:17:00,
2013-01-18 01:24:00,32.4,22.7,30.13,NNE,22,1.0,4.0,67,0.00,,,0.00,0,Wunderground v.1.15,2013-01-18 06:24:00,
2013-01-18 01:29:00,32.3,23.3,30.15,WNW,302,2.0,5.0,69,0.00,,,0.00,0,Wunderground v.1.15,2013-01-18 06:29:00,
2013-01-18 01:34:00,32.0,23.3,30.16,North,5,0.0,7.0,70,0.00,,,0.00,0,Wunderground v.1.15,2013-01-18 06:34:00,
2013-01-18 01:39:00,31.8,23.1,30.17,NW,315,3.0,7.0,70,0.00,,,0.00,0,Wunderground v.1.15,2013-01-18 06:39:00,
2013-01-18 01:44:00,31.7,23.0,30.16,NNE,26,1.0,5.0,70,0.00,,,0.00,0,Wunderground v.1.15,2013-01-18 06:44:00,
2013-01-18 01:50:00,31.5,22.8,30.18,NE,42,4.0,4.0,70,0.00,,,0.00,0,Wunderground v.1.15,2013-01-18 06:50:00,
2013-01-18 01:55:00,31.4,21.7,30.17,NE,34,4.0,5.0,67,0.00,,,0.00,0,Wunderground v.1.15,2013-01-18 06:55:00,
2013-01-18 07:09:00,25.2,14.0,30.36,NE,34,5.0,13.0,62,0.00,,,0.00,0,weatherlink.com 1.10,2013-01-18 12:09:00,
2013-01-18 07:14:00,25.0,13.8,30.36,NNW,332,10.0,10.0,62,0.00,,,0.00,0,Wunderground v.1.15,2013-01-18 12:14:00,
2013-01-18 07:19:00,24.9,13.7,30.37,North,360,7.0,15.0,62,0.00,,,0.00,5,Wunderground v.1.15,2013-01-18 12:19:00,
2013-01-18 07:24:00,24.7,13.5,30.37,SE,137,3.0,16.0,62,0.00,,,0.00,7,Wunderground v.1.15,2013-01-18 12:24:00,
2013-01-18 07:30:00,24.6,13.1,30.39,NE,42,3.0,16.0,61,0.00,,,0.00,12,Wunderground v.1.15,2013-01-18 12:30:00,
2013-01-18 07:35:00,24.5,13.3,30.39,WNW,285,5.0,13.0,62,0.00,,,0.00,16,Wunderground v.1.15,2013-01-18 12:35:00,
2013-01-18 07:40:00,24.4,13.2,30.39,NW,308,3.0,13.0,62,0.00,,,0.00,19,Wunderground v.1.15,2013-01-18 12:40:00,
2013-01-18 07:45:00,24.4,12.9,30.40,NNE,27,8.0,11.0,61,0.00,,,0.00,30,Wunderground v.1.15,2013-01-18 12:45:00,
2013-01-18 07:50:00,24.4,12.5,30.40,NNE,19,7.0,11.0,60,0.00,,,0.00,28,Wunderground v.1.15,2013-01-18 12:50:00,
2013-01-18 07:55:00,24.4,12.9,30.42,East,98,5.0,10.0,61,0.00,,,0.00,30,Wunderground v.1.15,2013-01-18 12:55:00,
2013-01-18 08:00:00,24.4,12.1,30.42,North,355,7.0,10.0,59,0.00,,,0.00,40,Wunderground v.1.15,2013-01-18 13:00:00,
2013-01-18 08:05:00,24.4,11.7,30.42,NNE,33,2.0,12.0,58,0.00,,,0.00,46,Wunderground v.1.15,2013-01-18 13:05:00,
2013-01-18 08:10:00,24.4,12.1,30.42,WNW,300,1.0,12.0,59,0.00,,,0.00,42,Wunderground v.1.15,2013-01-18 13:10:00,
2013-01-18 08:15:00,24.3,12.0,30.42,NNE,32,3.0,14.0,59,0.00,,,0.00,39,Wunderground v.1.15,2013-01-18 13:15:00,
2013-01-18 08:20:00,24.2,11.9,30.42,NNE,32,10.0,14.0,59,0.00,,,0.00,42,Wunderground v.1.15,2013-01-18 13:20:00,
2013-01-18 08:25:00,24.1,11.8,30.43,North,11,3.0,9.0,59,0.00,,,0.00,37,Wunderground v.1.15,2013-01-18 13:25:00,
2013-01-18 08:30:00,24.1,12.2,30.43,North,360,5.0,6.0,60,0.00,,,0.00,42,Wunderground v.1.15,2013-01-18 13:30:00,
2013-01-18 08:35:00,24.1,12.6,30.44,NNW,330,10.0,11.0,61,0.00,,,0.00,51,Wunderground v.1.15,2013-01-18 13:35:00,
2013-01-18 08:40:00,24.2,12.7,30.44,NNW,342,6.0,6.0,61,0.00,,,0.00,37,Wunderground v.1.15,2013-01-18 13:40:00,
2013-01-18 08:45:00,24.2,12.3,30.45,NNE,22,5.0,8.0,60,0.00,,,0.00,39,Wunderground v.1.15,2013-01-18 13:45:00,
2013-01-18 08:50:00,24.3,12.4,30.45,NNE,25,2.0,4.0,60,0.00,,,0.00,51,Wunderground v.1.15,2013-01-18 13:50:00,
2013-01-18 08:56:00,24.4,11.7,30.45,NW,314,4.0,11.0,58,0.00,,,0.00,60,Wunderground v.1.15,2013-01-18 13:56:00,
2013-01-18 09:01:00,24.5,11.8,30.46,NNE,20,3.0,7.0,58,0.00,,,0.00,54,Wunderground v.1.15,2013-01-18 14:01:00,
2013-01-18 09:06:00,24.5,11.4,30.46,NW,308,5.0,7.0,57,0.00,,,0.00,77,Wunderground v.1.15,2013-01-18 14:06:00,
2013-01-18 09:11:00,24.5,11.4,30.47,NNE,31,2.0,7.0,57,0.00,,,0.00,46,Wunderground v.1.15,2013-01-18 14:11:00,
2013-01-18 09:16:00,24.7,11.6,30.47,WNW,286,1.0,9.0,57,0.00,,,0.00,72,Wunderground v.1.15,2013-01-18 14:16:00,
2013-01-18 09:21:00,24.7,11.2,30.48,NE,48,4.0,6.0,56,0.00,,,0.00,118,Wunderground v.1.15,2013-01-18 14:21:00,
2013-01-18 09:26:00,24.5,11.0,30.49,NNE,27,3.0,9.0,56,0.00,,,0.00,79,Wunderground v.1.15,2013-01-18 14:26:00,
2013-01-18 09:31:00,24.7,11.2,30.48,ESE,105,1.0,5.0,56,0.00,,,0.00,141,Wunderground v.1.15,2013-01-18 14:31:00,
2013-01-18 09:36:00,24.8,11.3,30.49,NNW,340,2.0,8.0,56,0.00,,,0.00,167,Wunderground v.1.15,2013-01-18 14:36:00,
2013-01-18 09:41:00,25.2,12.1,30.50,NNE,25,3.0,6.0,57,0.00,,,0.00,162,Wunderground v.1.15,2013-01-18 14:41:00,
2013-01-18 09:46:00,25.3,11.8,30.50,NE,44,3.0,8.0,56,0.00,,,0.00,172,Wunderground v.1.15,2013-01-18 14:46:00,
2013-01-18 09:51:00,25.2,11.3,30.50,WSW,246,6.0,6.0,55,0.00,,,0.00,272,Wunderground v.1.15,2013-01-18 14:51:00,
2013-01-18 09:56:00,25.2,11.3,30.51,North,5,2.0,9.0,55,0.00,,,0.00,329,Wunderground v.1.15,2013-01-18 14:56:00,
2013-01-18 10:01:00,25.8,11.4,30.51,NNW,340,5.0,5.0,54,0.00,,,0.00,373,Wunderground v.1.15,2013-01-18 15:01:00,
2013-01-18 10:06:00,26.1,11.7,30.51,NNW,348,6.0,8.0,54,0.00,,,0.00,387,Wunderground v.1.15,2013-01-18 15:06:00,
2013-01-18 10:11:00,25.9,11.9,30.51,NE,35,1.0,4.0,55,0.00,,,0.00,401,Wunderground v.1.15,2013-01-18 15:11:00,
2013-01-18 10:16:00,25.9,11.9,30.52,ENE,59,2.0,9.0,55,0.00,,,0.00,403,Wunderground v.1.15,2013-01-18 15:16:00,
2013-01-18 10:21:00,26.7,12.7,30.52,North,355,2.0,5.0,55,0.00,,,0.00,415,Wunderground v.1.15,2013-01-18 15:21:00,
2013-01-18 10:26:00,27.7,11.9,30.52,NE,43,3.0,6.0,51,0.00,,,0.00,390,Wunderground v.1.15,2013-01-18 15:26:00,
2013-01-18 10:31:00,27.2,11.0,30.52,North,11,7.0,14.0,50,0.00,,,0.00,431,Wunderground v.1.15,2013-01-18 15:31:00,
2013-01-18 10:36:00,27.0,10.4,30.52,NNW,334,3.0,14.0,49,0.00,,,0.00,445,Wunderground v.1.15,2013-01-18 15:36:00,
2013-01-18 10:41:00,27.8,11.5,30.52,West,261,3.0,4.0,50,0.00,,,0.00,487,Wunderground v.1.15,2013-01-18 15:41:00,
2013-01-18 10:46:00,27.6,10.0,30.52,NNW,327,4.0,11.0,47,0.00,,,0.00,503,Wunderground v.1.15,2013-01-18 15:46:00,
2013-01-18 10:51:00,27.5,10.4,30.52,NNW,346,6.0,14.0,48,0.00,,,0.00,501,Wunderground v.1.15,2013-01-18 15:51:00,
2013-01-18 10:57:00,27.4,10.3,30.52,NNW,344,5.0,14.0,48,0.00,,,0.00,492,Wunderground v.1.15,2013-01-18 15:57:00,
2013-01-18 11:02:00,27.9,10.7,30.52,NNE,28,3.0,9.0,48,0.00,,,0.00,503,Wunderground v.1.15,2013-01-18 16:02:00,
2013-01-18 11:07:00,27.4,8.8,30.52,NW,312,4.0,11.0,45,0.00,,,0.00,578,Wunderground v.1.15,2013-01-18 16:07:00,
2013-01-18 11:12:00,27.8,10.6,30.52,NNW,347,2.0,11.0,48,0.00,,,0.00,575,Wunderground v.1.15,2013-01-18 16:12:00,
2013-01-18 11:17:00,28.3,10.6,30.52,NNW,344,5.0,14.0,47,0.00,,,0.00,529,Wunderground v.1.15,2013-01-18 16:17:00,
2013-01-18 11:22:00,28.3,10.1,30.51,NW,323,6.0,10.0,46,0.00,,,0.00,547,Wunderground v.1.15,2013-01-18 16:22:00,
2013-01-18 11:27:00,28.7,10.5,30.51,North,9,6.0,14.0,46,0.00,,,0.00,534,Wunderground v.1.15,2013-01-18 16:27:00,
2013-01-18 11:32:00,28.5,9.8,30.51,NNE,32,2.0,6.0,45,0.00,,,0.00,534,Wunderground v.1.15,2013-01-18 16:32:00,
2013-01-18 11:37:00,28.8,10.6,30.51,West,269,8.0,15.0,46,0.00,,,0.00,540,Wunderground v.1.15,2013-01-18 16:37:00,
2013-01-18 11:42:00,28.3,9.6,30.51,NNE,17,8.0,8.0,45,0.00,,,0.00,603,Wunderground v.1.15,2013-01-18 16:42:00,
2013-01-18 11:47:00,28.3,9.6,30.51,NW,319,5.0,9.0,45,0.00,,,0.00,137,Wunderground v.1.15,2013-01-18 16:47:00,
2013-01-18 11:52:00,28.5,10.3,30.51,WNW,296,6.0,15.0,46,0.00,,,0.00,529,Wunderground v.1.15,2013-01-18 16:52:00,
2013-01-18 11:57:00,28.1,10.4,30.51,WNW,301,5.0,15.0,47,0.00,,,0.00,123,Wunderground v.1.15,2013-01-18 16:57:00,
2013-01-18 12:02:00,27.6,10.4,30.51,NNW,342,4.0,8.0,48,0.00,,,0.00,121,Wunderground v.1.15,2013-01-18 17:02:00,
2013-01-18 12:07:00,27.6,10.0,30.51,NNW,333,13.0,13.0,47,0.00,,,0.00,54,Wunderground v.1.15,2013-01-18 17:07:00,
2013-01-18 12:12:00,27.1,8.0,30.51,NNW,336,4.0,9.0,44,0.00,,,0.00,60,Wunderground v.1.15,2013-01-18 17:12:00,
2013-01-18 12:17:00,27.8,8.7,30.51,NW,310,3.0,10.0,44,0.00,,,0.00,508,Wunderground v.1.15,2013-01-18 17:17:00,
2013-01-18 12:22:00,28.7,9.0,30.51,North,355,4.0,14.0,43,0.00,,,0.00,515,Wunderground v.1.15,2013-01-18 17:22:00,
2013-01-18 12:27:00,27.9,6.7,30.52,North,5,6.0,14.0,40,0.00,,,0.00,77,Wunderground v.1.15,2013-01-18 17:27:00,
2013-01-18 12:32:00,28.0,7.3,30.52,NW,306,4.0,12.0,41,0.00,,,0.00,499,Wunderground v.1.15,2013-01-18 17:32:00,
2013-01-18 12:37:00,28.3,8.1,30.52,West,275,7.0,14.0,42,0.00,,,0.00,492,Wunderground v.1.15,2013-01-18 17:37:00,
2013-01-18 12:42:00,28.7,7.4,30.51,West,275,4.0,8.0,40,0.00,,,0.00,489,Wunderground v.1.15,2013-01-18 17:42:00,
2013-01-18 12:47:00,28.2,7.5,30.52,NW,317,1.0,12.0,41,0.00,,,0.00,485,Wunderground v.1.15,2013-01-18 17:47:00,
2013-01-18 12:52:00,28.6,8.4,30.52,NNW,342,1.0,7.0,42,0.00,,,0.00,482,Wunderground v.1.15,2013-01-18 17:52:00,
2013-01-18 12:57:00,28.7,8.5,30.51,WSW,246,9.0,12.0,42,0.00,,,0.00,478,Wunderground v.1.15,2013-01-18 17:57:00,
2013-01-18 13:02:00,28.7,8.5,30.51,West,259,1.0,5.0,42,0.00,,,0.00,468,Wunderground v.1.15,2013-01-18 18:02:00,
2013-01-18 13:07:00,28.5,7.8,30.51,North,11,3.0,11.0,41,0.00,,,0.00,454,Wunderground v.1.15,2013-01-18 18:07:00,
2013-01-18 13:12:00,28.8,8.6,30.51,NNE,15,3.0,6.0,42,0.00,,,0.00,339,Wunderground v.1.15,2013-01-18 18:12:00,
2013-01-18 13:17:00,28.5,8.3,30.50,NNE,24,8.0,10.0,42,0.00,,,0.00,380,Wunderground v.1.15,2013-01-18 18:17:00,
2013-01-18 13:22:00,28.6,8.4,30.51,NW,316,3.0,11.0,42,0.00,,,0.00,216,Wunderground v.1.15,2013-01-18 18:22:00,
2013-01-18 13:27:00,28.5,7.8,30.51,NW,321,4.0,15.0,41,0.00,,,0.00,304,Wunderground v.1.15,2013-01-18 18:27:00,
2013-01-18 13:32:00,28.2,7.5,30.52,NW,315,4.0,8.0,41,0.00,,,0.00,190,Wunderground v.1.15,2013-01-18 18:32:00,
2013-01-18 13:37:00,28.2,6.9,30.52,NW,309,3.0,9.0,40,0.00,,,0.00,37,Wunderground v.1.15,2013-01-18 18:37:00,
2013-01-18 13:42:00,28.4,7.7,30.53,NNE,32,3.0,4.0,41,0.00,,,0.00,97,Wunderground v.1.15,2013-01-18 18:42:00,
2013-01-18 13:47:00,28.3,7.6,30.53,NNW,340,3.0,6.0,41,0.00,,,0.00,162,Wunderground v.1.15,2013-01-18 18:47:00,
2013-01-18 13:52:00,28.7,8.5,30.53,NNW,340,1.0,7.0,42,0.00,,,0.00,209,Wunderground v.1.15,2013-01-18 18:52:00,
2013-01-18 13:57:00,28.7,7.9,30.53,SW,234,2.0,10.0,41,0.00,,,0.00,214,Wunderground v.1.15,2013-01-18 18:57:00,
2013-01-18 14:02:00,28.6,7.3,30.53,North,360,2.0,11.0,40,0.00,,,0.00,236,Wunderground v.1.15,2013-01-18 19:02:00,
2013-01-18 14:08:00,28.7,6.8,30.53,West,275,4.0,12.0,39,0.00,,,0.00,211,Wunderground v.1.15,2013-01-18 19:08:00,
2013-01-18 14:13:00,28.7,6.8,30.53,WNW,294,7.0,8.0,39,0.00,,,0.00,165,Wunderground v.1.15,2013-01-18 19:13:00,
2013-01-18 14:18:00,28.6,6.2,30.52,North,350,4.0,10.0,38,0.00,,,0.00,155,Wunderground v.1.15,2013-01-18 19:18:00,
2013-01-18 14:23:00,28.9,7.0,30.52,WNW,300,3.0,9.0,39,0.00,,,0.00,134,Wunderground v.1.15,2013-01-18 19:23:00,
2013-01-18 14:28:00,28.8,6.3,30.52,NNE,24,3.0,11.0,38,0.00,,,0.00,132,Wunderground v.1.15,2013-01-18 19:28:00,
2013-01-18 14:33:00,29.0,7.7,30.52,WNW,284,4.0,8.0,40,0.00,,,0.00,158,Wunderground v.1.15,2013-01-18 19:33:00,
2013-01-18 14:38:00,28.8,6.3,30.52,WNW,298,3.0,11.0,38,0.00,,,0.00,151,Wunderground v.1.15,2013-01-18 19:38:00,
2013-01-18 14:43:00,29.0,7.1,30.52,NW,311,12.0,12.0,39,0.00,,,0.00,276,Wunderground v.1.15,2013-01-18 19:43:00,
2013-01-18 14:48:00,28.9,6.4,30.52,NNE,19,4.0,13.0,38,0.00,,,0.00,258,Wunderground v.1.15,2013-01-18 19:48:00,
2013-01-18 14:53:00,29.0,6.5,30.53,West,260,8.0,8.0,38,0.00,,,0.00,211,Wunderground v.1.15,2013-01-18 19:53:00,
2013-01-18 14:58:00,29.0,6.5,30.53,NNE,12,2.0,8.0,38,0.00,,,0.00,135,Wunderground v.1.15,2013-01-18 19:58:00,
2013-01-18 15:04:00,29.0,7.1,30.53,NW,321,6.0,9.0,39,0.00,,,0.00,174,Wunderground v.1.15,2013-01-18 20:04:00,
2013-01-18 15:09:00,28.7,7.4,30.53,North,350,8.0,9.0,40,0.00,,,0.00,193,Wunderground v.1.15,2013-01-18 20:09:00,
2013-01-18 15:14:00,29.2,8.4,30.53,NNW,331,2.0,9.0,41,0.00,,,0.00,104,Wunderground v.1.15,2013-01-18 20:14:00,
2013-01-18 15:19:00,29.5,8.1,30.53,West,279,7.0,9.0,40,0.00,,,0.00,181,Wunderground v.1.15,2013-01-18 20:19:00,
2013-01-18 15:24:00,29.2,8.4,30.53,NNE,13,2.0,8.0,41,0.00,,,0.00,158,Wunderground v.1.15,2013-01-18 20:24:00,
2013-01-18 15:29:00,29.4,6.9,30.53,NNW,331,0.0,8.0,38,0.00,,,0.00,137,Wunderground v.1.15,2013-01-18 20:29:00,
2013-01-18 15:34:00,29.3,6.8,30.53,WNW,296,4.0,7.0,38,0.00,,,0.00,127,Wunderground v.1.15,2013-01-18 20:34:00,
2013-01-18 15:39:00,29.2,7.3,30.53,WNW,301,3.0,8.0,39,0.00,,,0.00,102,Wunderground v.1.15,2013-01-18 20:39:00,
2013-01-18 15:45:00,29.1,7.2,30.53,West,267,1.0,11.0,39,0.00,,,0.00,109,Wunderground v.1.15,2013-01-18 20:45:00,
2013-01-18 15:50:00,29.0,7.1,30.53,West,272,6.0,11.0,39,0.00,,,0.00,111,Wunderground v.1.15,2013-01-18 20:50:00,
2013-01-18 15:55:00,28.9,6.4,30.53,North,5,2.0,6.0,38,0.00,,,0.00,102,Wunderground v.1.15,2013-01-18 20:55:00,
2013-01-18 16:00:00,28.6,6.2,30.53,NNE,17,3.0,8.0,38,0.00,,,0.00,88,Wunderground v.1.15,2013-01-18 21:00:00,
2013-01-18 16:05:00,28.5,6.6,30.54,NNE,20,4.0,8.0,39,0.00,,,0.00,77,Wunderground v.1.15,2013-01-18 21:05:00,
2013-01-18 16:10:00,28.4,6.6,30.53,NE,50,1.0,8.0,39,0.00,,,0.00,19,Wunderground v.1.15,2013-01-18 21:10:00,
2013-01-18 16:15:00,28.2,5.8,30.54,WNW,298,2.0,8.0,38,0.00,,,0.00,18,Wunderground v.1.15,2013-01-18 21:15:00,
2013-01-18 16:20:00,28.1,6.3,30.54,NNW,344,1.0,3.0,39,0.00,,,0.00,16,Wunderground v.1.15,2013-01-18 21:20:00,
2013-01-18 16:25:00,27.9,5.5,30.54,WNW,295,6.0,6.0,38,0.00,,,0.00,14,Wunderground v.1.15,2013-01-18 21:25:00,
2013-01-18 16:30:00,27.8,5.4,30.54,NNW,342,1.0,4.0,38,0.00,,,0.00,12,Wunderground v.1.15,2013-01-18 21:30:00,
2013-01-18 16:35:00,27.6,5.3,30.53,North,351,2.0,7.0,38,0.00,,,0.00,11,Wunderground v.1.15,2013-01-18 21:35:00,
2013-01-18 16:41:00,27.5,5.2,30.54,West,273,0.0,4.0,38,0.00,,,0.00,9,Wunderground v.1.15,2013-01-18 21:41:00,
2013-01-18 16:46:00,27.4,6.2,30.54,NW,308,1.0,4.0,40,0.00,,,0.00,7,Wunderground v.1.15,2013-01-18 21:46:00,
2013-01-18 16:51:00,27.2,6.0,30.54,West,267,1.0,3.0,40,0.00,,,0.00,5,Wunderground v.1.15,2013-01-18 21:51:00,
2013-01-18 16:56:00,27.2,7.6,30.54,WNW,295,1.0,3.0,43,0.00,,,0.00,0,Wunderground v.1.15,2013-01-18 21:56:00,
2013-01-18 17:01:00,27.2,6.6,30.55,WNW,295,0.0,2.0,41,0.00,,,0.00,0,Wunderground v.1.15,2013-01-18 22:01:00,
2013-01-18 17:06:00,27.0,6.9,30.55,WNW,300,1.0,4.0,42,0.00,,,0.00,0,Wunderground v.1.15,2013-01-18 22:06:00,
2013-01-18 17:11:00,27.1,7.5,30.56,NW,318,1.0,4.0,43,0.00,,,0.00,0,Wunderground v.1.15,2013-01-18 22:11:00,
2013-01-18 17:16:00,27.0,7.4,30.56,NW,319,1.0,4.0,43,0.00,,,0.00,0,Wunderground v.1.15,2013-01-18 22:16:00,
2013-01-18 17:21:00,27.0,8.0,30.56,WNW,293,3.0,3.0,44,0.00,,,0.00,0,Wunderground v.1.15,2013-01-18 22:21:00,
2013-01-18 17:26:00,27.0,8.0,30.56,NW,311,0.0,4.0,44,0.00,,,0.00,0,Wunderground v.1.15,2013-01-18 22:26:00,
2013-01-18 17:31:00,26.9,8.4,30.57,NW,311,1.0,2.0,45,0.00,,,0.00,0,Wunderground v.1.15,2013-01-18 22:31:00,
2013-01-18 17:36:00,26.8,7.8,30.56,NW,317,2.0,3.0,44,0.00,,,0.00,0,Wunderground v.1.15,2013-01-18 22:36:00,
2013-01-18 17:41:00,26.7,7.7,30.57,WNW,283,1.0,3.0,44,0.00,,,0.00,0,Wunderground v.1.15,2013-01-18 22:41:00,
2013-01-18 17:46:00,26.7,7.7,30.57,WNW,282,0.0,3.0,44,0.00,,,0.00,0,Wunderground v.1.15,2013-01-18 22:46:00,
2013-01-18 17:51:00,26.7,8.2,30.57,WNW,282,0.0,1.0,45,0.00,,,0.00,0,Wunderground v.1.15,2013-01-18 22:51:00,
2013-01-18 17:56:00,26.4,8.9,30.58,WNW,282,1.0,1.0,47,0.00,,,0.00,0,Wunderground v.1.15,2013-01-18 22:56:00,
2013-01-18 18:01:00,26.1,8.6,30.58,WNW,282,0.0,0.0,47,0.00,,,0.00,0,Wunderground v.1.15,2013-01-18 23:01:00,
2013-01-18 18:06:00,26.1,9.5,30.58,WNW,282,0.0,0.0,49,0.00,,,0.00,0,Wunderground v.1.15,2013-01-18 23:06:00,
2013-01-18 18:11:00,26.1,8.6,30.58,WNW,282,0.0,0.0,47,0.00,,,0.00,0,Wunderground v.1.15,2013-01-18 23:11:00,
2013-01-18 18:17:00,25.8,9.2,30.58,WNW,282,0.0,1.0,49,0.00,,,0.00,0,Wunderground v.1.15,2013-01-18 23:17:00,
2013-01-18 18:22:00,25.6,9.1,30.58,WNW,282,0.0,0.0,49,0.00,,,0.00,0,Wunderground v.1.15,2013-01-18 23:22:00,
2013-01-18 18:27:00,26.1,10.9,30.58,WNW,282,0.0,0.0,52,0.00,,,0.00,0,Wunderground v.1.15,2013-01-18 23:27:00,
2013-01-18 18:32:00,25.7,9.6,30.58,WNW,282,0.0,0.0,50,0.00,,,0.00,0,Wunderground v.1.15,2013-01-18 23:32:00,
2013-01-18 18:37:00,25.6,9.1,30.58,WNW,282,0.0,0.0,49,0.00,,,0.00,0,Wunderground v.1.15,2013-01-18 23:37:00,
2013-01-18 18:42:00,25.6,9.1,30.58,WNW,282,0.0,0.0,49,0.00,,,0.00,0,Wunderground v.1.15,2013-01-18 23:42:00,
2013-01-18 18:47:00,25.3,9.7,30.58,WNW,282,0.0,0.0,51,0.00,,,0.00,0,Wunderground v.1.15,2013-01-18 23:47:00,
2013-01-18 18:52:00,25.2,11.7,30.58,WNW,282,0.0,0.0,56,0.00,,,0.00,0,Wunderground v.1.15,2013-01-18 23:52:00,
2013-01-18 18:57:00,24.9,11.4,30.58,WNW,282,1.0,2.0,56,0.00,,,0.00,0,Wunderground v.1.15,2013-01-18 23:57:00,
2013-01-18 19:02:00,24.8,12.1,30.58,WNW,282,0.0,1.0,58,0.00,,,0.00,0,Wunderground v.1.15,2013-01-19 00:02:00,
2013-01-18 19:07:00,24.8,11.7,30.58,WNW,282,0.0,1.0,57,0.00,,,0.00,0,Wunderground v.1.15,2013-01-19 00:07:00,
2013-01-18 19:12:00,24.9,10.6,30.58,WNW,282,0.0,0.0,54,0.00,,,0.00,0,Wunderground v.1.15,2013-01-19 00:12:00,
2013-01-18 19:17:00,24.7,11.2,30.58,WNW,282,0.0,0.0,56,0.00,,,0.00,0,Wunderground v.1.15,2013-01-19 00:17:00,
2013-01-18 19:22:00,24.6,11.1,30.58,WNW,282,0.0,0.0,56,0.00,,,0.00,0,Wunderground v.1.15,2013-01-19 00:22:00,
2013-01-18 19:27:00,24.6,10.3,30.58,WNW,282,0.0,1.0,54,0.00,,,0.00,0,Wunderground v.1.15,2013-01-19 00:27:00,
2013-01-18 19:32:00,24.7,10.4,30.58,WNW,282,0.0,0.0,54,0.00,,,0.00,0,Wunderground v.1.15,2013-01-19 00:32:00,
2013-01-18 19:37:00,24.6,10.7,30.58,WNW,282,0.0,1.0,55,0.00,,,0.00,0,Wunderground v.1.15,2013-01-19 00:37:00,
2013-01-18 19:42:00,24.5,11.4,30.58,WNW,282,1.0,1.0,57,0.00,,,0.00,0,Wunderground v.1.15,2013-01-19 00:42:00,
2013-01-18 19:47:00,24.4,11.3,30.58,WNW,282,0.0,1.0,57,0.00,,,0.00,0,Wunderground v.1.15,2013-01-19 00:47:00,
2013-01-18 19:52:00,24.4,10.9,30.57,WNW,282,0.0,0.0,56,0.00,,,0.00,0,Wunderground v.1.15,2013-01-19 00:52:00,
2013-01-18 19:57:00,24.3,11.6,30.57,WNW,282,0.0,1.0,58,0.00,,,0.00,0,Wunderground v.1.15,2013-01-19 00:57:00,
2013-01-18 20:02:00,24.3,12.4,30.57,WNW,282,0.0,0.0,60,0.00,,,0.00,0,Wunderground v.1.15,2013-01-19 01:02:00,
2013-01-18 20:07:00,24.1,11.4,30.57,WNW,282,0.0,0.0,58,0.00,,,0.00,0,Wunderground v.1.15,2013-01-19 01:07:00,
2013-01-18 20:12:00,24.0,11.7,30.57,WNW,282,1.0,1.0,59,0.00,,,0.00,0,Wunderground v.1.15,2013-01-19 01:12:00,
2013-01-18 20:17:00,23.9,12.4,30.58,WNW,282,1.0,1.0,61,0.00,,,0.00,0,Wunderground v.1.15,2013-01-19 01:17:00,
2013-01-18 20:22:00,23.9,12.0,30.57,WNW,282,0.0,1.0,60,0.00,,,0.00,0,Wunderground v.1.15,2013-01-19 01:22:00,
2013-01-18 20:27:00,23.8,12.3,30.57,WNW,282,0.0,1.0,61,0.00,,,0.00,0,Wunderground v.1.15,2013-01-19 01:27:00,
2013-01-18 20:32:00,24.1,11.4,30.57,WNW,282,0.0,0.0,58,0.00,,,0.00,0,Wunderground v.1.15,2013-01-19 01:32:00,
2013-01-18 20:37:00,24.1,11.4,30.57,WNW,282,0.0,0.0,58,0.00,,,0.00,0,Wunderground v.1.15,2013-01-19 01:37:00,
2013-01-18 20:42:00,24.3,10.4,30.56,WNW,282,0.0,1.0,55,0.00,,,0.00,0,Wunderground v.1.15,2013-01-19 01:42:00,
2013-01-18 20:47:00,24.3,10.8,30.56,WNW,282,1.0,1.0,56,0.00,,,0.00,0,Wunderground v.1.15,2013-01-19 01:47:00,
2013-01-18 20:53:00,24.3,11.2,30.56,WNW,282,1.0,1.0,57,0.00,,,0.00,0,Wunderground v.1.15,2013-01-19 01:53:00,
2013-01-18 20:58:00,24.3,11.2,30.56,WNW,282,0.0,1.0,57,0.00,,,0.00,0,Wunderground v.1.15,2013-01-19 01:58:00,
2013-01-18 21:03:00,24.2,11.5,30.56,WNW,282,2.0,2.0,58,0.00,,,0.00,0,Wunderground v.1.15,2013-01-19 02:03:00,
2013-01-18 21:08:00,24.2,11.1,30.56,WNW,282,0.0,2.0,57,0.00,,,0.00,0,Wunderground v.1.15,2013-01-19 02:08:00,
2013-01-18 21:13:00,24.2,11.5,30.56,WNW,282,0.0,1.0,58,0.00,,,0.00,0,Wunderground v.1.15,2013-01-19 02:13:00,
2013-01-18 21:18:00,24.3,12.0,30.55,WNW,282,0.0,1.0,59,0.00,,,0.00,0,Wunderground v.1.15,2013-01-19 02:18:00,
2013-01-18 21:23:00,24.5,11.4,30.56,WNW,282,0.0,0.0,57,0.00,,,0.00,0,Wunderground v.1.15,2013-01-19 02:23:00,
2013-01-18 21:28:00,24.2,11.9,30.56,WNW,282,0.0,0.0,59,0.00,,,0.00,0,Wunderground v.1.15,2013-01-19 02:28:00,
2013-01-18 21:33:00,24.3,12.4,30.56,WNW,282,0.0,0.0,60,0.00,,,0.00,0,Wunderground v.1.15,2013-01-19 02:33:00,
2013-01-18 21:38:00,24.5,11.8,30.56,WNW,282,0.0,0.0,58,0.00,,,0.00,0,Wunderground v.1.15,2013-01-19 02:38:00,
2013-01-18 21:43:00,24.6,12.3,30.56,WNW,282,1.0,1.0,59,0.00,,,0.00,0,Wunderground v.1.15,2013-01-19 02:43:00,
2013-01-18 21:48:00,24.6,12.7,30.56,WNW,282,0.0,2.0,60,0.00,,,0.00,0,Wunderground v.1.15,2013-01-19 02:48:00,
2013-01-18 21:53:00,24.6,12.3,30.56,WNW,282,0.0,1.0,59,0.00,,,0.00,0,Wunderground v.1.15,2013-01-19 02:53:00,
2013-01-18 21:58:00,24.6,12.7,30.56,WNW,282,0.0,1.0,60,0.00,,,0.00,0,Wunderground v.1.15,2013-01-19 02:58:00,
2013-01-18 22:03:00,24.6,12.7,30.55,WNW,282,1.0,2.0,60,0.00,,,0.00,0,Wunderground v.1.15,2013-01-19 03:03:00,
2013-01-18 22:08:00,24.6,12.3,30.55,WNW,282,0.0,2.0,59,0.00,,,0.00,0,Wunderground v.1.15,2013-01-19 03:08:00,
2013-01-18 22:13:00,24.7,12.8,30.54,WNW,282,0.0,1.0,60,0.00,,,0.00,0,Wunderground v.1.15,2013-01-19 03:13:00,
2013-01-18 22:19:00,24.8,12.9,30.54,West,277,0.0,1.0,60,0.00,,,0.00,0,Wunderground v.1.15,2013-01-19 03:19:00,
2013-01-18 22:24:00,24.9,13.3,30.54,West,274,0.0,1.0,61,0.00,,,0.00,0,Wunderground v.1.15,2013-01-19 03:24:00,
2013-01-18 22:29:00,25.3,13.0,30.54,West,274,0.0,2.0,59,0.00,,,0.00,0,Wunderground v.1.15,2013-01-19 03:29:00,
2013-01-18 22:34:00,25.6,12.9,30.54,West,274,0.0,2.0,58,0.00,,,0.00,0,Wunderground v.1.15,2013-01-19 03:34:00,
2013-01-18 22:39:00,25.7,13.3,30.53,West,266,1.0,3.0,59,0.00,,,0.00,0,Wunderground v.1.15,2013-01-19 03:39:00,
2013-01-18 22:44:00,26.0,13.2,30.53,WSW,248,0.0,2.0,58,0.00,,,0.00,0,Wunderground v.1.15,2013-01-19 03:44:00,
2013-01-18 22:49:00,26.5,13.3,30.53,WSW,243,0.0,2.0,57,0.00,,,0.00,0,Wunderground v.1.15,2013-01-19 03:49:00,
2013-01-18 22:54:00,26.7,13.1,30.53,SW,225,1.0,3.0,56,0.00,,,0.00,0,Wunderground v.1.15,2013-01-19 03:54:00,
2013-01-18 22:59:00,27.0,13.4,30.53,SW,226,0.0,4.0,56,0.00,,,0.00,0,Wunderground v.1.15,2013-01-19 03:59:00,
2013-01-18 23:04:00,27.0,13.8,30.52,SW,223,0.0,3.0,57,0.00,,,0.00,0,Wunderground v.1.15,2013-01-19 04:04:00,
2013-01-18 23:09:00,27.1,13.5,30.52,SSW,202,0.0,4.0,56,0.00,,,0.00,0,Wunderground v.1.15,2013-01-19 04:09:00,
2013-01-18 23:14:00,27.1,13.9,30.52,SW,215,0.0,3.0,57,0.00,,,0.00,0,Wunderground v.1.15,2013-01-19 04:14:00,
2013-01-18 23:19:00,27.5,13.8,30.52,SSW,207,0.0,3.0,56,0.00,,,0.00,0,Wunderground v.1.15,2013-01-19 04:19:00,
2013-01-18 23:24:00,27.3,14.1,30.52,SSW,212,0.0,2.0,57,0.00,,,0.00,0,Wunderground v.1.15,2013-01-19 04:24:00,
2013-01-18 23:29:00,27.3,14.1,30.52,SSE,164,1.0,2.0,57,0.00,,,0.00,0,Wunderground v.1.15,2013-01-19 04:29:00,
2013-01-18 23:35:00,27.3,14.1,30.52,South,180,0.0,3.0,57,0.00,,,0.00,0,Wunderground v.1.15,2013-01-19 04:35:00,
2013-01-18 23:40:00,27.5,14.2,30.52,SSW,211,0.0,3.0,57,0.00,,,0.00,0,Wunderground v.1.15,2013-01-19 04:40:00,
2013-01-18 23:45:00,27.8,14.5,30.52,SSW,208,1.0,4.0,57,0.00,,,0.00,0,Wunderground v.1.15,2013-01-19 04:45:00,
2013-01-18 23:50:00,27.8,14.5,30.52,SSW,200,1.0,1.0,57,0.00,,,0.00,0,Wunderground v.1.15,2013-01-19 04:50:00,
2013-01-18 23:55:00,27.9,14.6,30.51,SSW,200,1.0,2.0,57,0.00,,,0.00,0,Wunderground v.1.15,2013-01-19 04:55:00,